Wind_Speed
40 41 41 42 43 43 44 45 46 46 45 47 49 50 52 55 56 55 56 56 56 54 56 55 54 55 56 57 57 56 55 55 53
46 46 46 47 48 49 49 50 50 51 51 51 52 52 54 55 58 60 60 60 60 61 60 59 61 60 58 57 57 58 57 57 56
49 50 51 52 53 54 54 55 55 54 53 54 54 55 56 58 60 62 62 63 63 64 64 63 63 63 64 63 60 59 59 60 59
53 54 54 54 56 57 57 58 58 56 53 52 52 54 56 57 59 63 65 65 66 65 65 66 65 66 66 68 66 64 61 60 60
54 55 57 58 59 59 59 59 58 57 53 53 53 55 56 57 58 60 63 65 68 69 71 71 71 71 71 70 70 69 68 64 62
54 57 58 57 59 57 58 60 58 55 57 59 56 55 55 54 55 56 57 59 62 66 70 73 75 76 75 75 73 72 72 71 68
62 61 61 62 63 61 62 62 61 59 61 58 55 52 50 50 49 49 50 52 55 58 61 64 66 68 73 78 79 78 75 76 74
65 64 65 65 65 65 65 63 61 61 60 55 52 49 48 44 42 39 38 37 38 43 48 51 56 61 69 73 76 78 81 79 79
72 70 67 65 65 64 66 63 62 62 57 52 49 46 41 34 32 26 26 31 34 39 44 48 53 58 62 68 74 77 76 80 82
72 71 70 67 66 66 64 62 61 57 51 49 45 40 32 28 23 26 29 34 37 40 45 51 56 63 69 71 72 72 74 75 77
68 66 63 62 63 62 61 59 56 51 47 44 38 31 26 23 27 28 33 32 36 41 44 50 60 69 71 67 65 65 64 69 74
61 60 59 58 58 58 56 54 50 45 42 38 31 26 26 24 28 30 27 30 38 43 50 58 69 74 73 68 58 60 54 54 64
60 57 55 54 56 53 51 48 46 42 36 32 26 27 27 27 29 23 25 32 39 45 52 62 72 73 61 56 52 58 61 71 71
55 53 51 51 50 50 47 46 42 36 32 26 26 29 27 28 25 23 27 34 42 46 54 60 63 54 46 43 45 50 61 61 42
49 48 48 47 48 46 43 39 37 32 31 24 29 29 26 26 25 24 27 35 42 47 51 50 49 39 33 32 36 43 60 71 71
46 45 44 43 42 39 34 34 33 33 29 25 29 28 27 26 23 25 28 35 43 48 52 43 39 29 22 21 30 42 57 74 66
44 43 42 42 39 35 31 32 35 33 30 27 30 29 24 24 23 26 28 33 42 46 56 41 27 17 12 13 24 37 57 62 54
39 37 36 36 35 35 33 34 36 34 31 28 30 30 25 23 24 25 27 30 37 47 55 46 22 18 9 8 28 48 59 60 67
32 26 22 25 32 34 35 35 35 33 31 31 31 30 28 25 22 26 27 29 35 44 50 46 36 27 8 20 53 64 65 65 62
22 17 17 24 29 33 35 34 33 32 31 32 33 32 32 29 27 27 29 30 32 37 40 42 35 21 38 41 58 62 59 60 60
Wind_Direction
285 283 283 283 282 281 280 279 279 278 277 276 274 272 270 266 264 263 261 260 260 261 264 264 262 260 258 256 256 255 255 255 255
282 281 281 280 280 280 280 282 283 282 281 282 279 275 273 271 267 263 260 260 259 258 258 258 260 260 260 259 257 254 253 252 252
281 280 279 279 280 280 281 283 284 285 286 285 281 277 274 271 269 266 265 262 260 258 257 257 256 259 260 259 258 257 255 252 251
281 281 280 280 280 281 282 285 286 288 286 284 284 281 279 275 270 266 264 264 263 260 258 257 256 255 257 257 258 257 254 253 252
281 281 280 280 280 282 285 286 287 287 289 289 287 283 280 276 272 269 265 262 260 259 259 258 256 255 254 252 253 255 256 254 251
283 282 281 282 283 285 287 286 288 289 291 293 290 286 281 276 273 270 266 263 261 259 259 258 257 255 254 252 250 248 249 251 253
284 283 282 283 283 284 286 287 289 291 293 294 290 287 285 282 276 271 268 267 265 265 264 262 260 259 256 253 250 248 246 247 248
283 283 282 282 282 281 284 285 289 289 292 293 293 292 289 284 279 275 273 273 272 269 267 267 266 262 257 253 251 248 247 244 245
285 281 282 280 280 280 280 283 285 290 293 294 295 295 289 280 278 275 276 272 274 277 277 276 273 268 262 257 252 249 247 245 242
281 280 277 279 278 278 280 280 285 290 290 292 291 288 278 276 273 274 273 279 284 290 289 284 279 274 268 262 255 249 248 244 243
283 280 276 276 277 278 278 281 285 286 288 287 283 273 269 269 273 270 282 293 299 296 293 292 282 271 269 266 257 252 247 245 242
282 279 275 275 275 277 280 281 282 282 283 274 269 260 265 270 279 282 294 302 306 310 309 293 281 280 280 276 259 247 231 246 246
284 280 278 276 274 276 279 278 278 278 271 260 251 249 260 274 283 295 306 315 316 318 312 292 289 289 283 272 254 236 224 204 235
281 279 276 273 273 273 272 272 271 265 253 247 240 248 264 275 284 297 312 322 324 327 317 303 298 292 281 265 248 230 217 206 215
282 278 274 271 268 267 266 263 258 247 240 235 237 249 262 274 283 300 315 324 330 336 324 315 307 296 280 256 237 216 204 190 196
283 278 272 267 263 259 254 248 239 233 232 230 233 250 262 276 289 304 319 330 336 340 339 323 316 306 277 250 221 203 194 192 206
281 276 270 262 254 248 241 233 226 225 231 234 236 245 266 282 293 305 322 340 345 348 353 341 329 310 313 234 209 196 179 170 175
286 282 270 253 238 231 228 221 216 221 233 237 243 251 262 271 288 304 320 337 345 349 358 0 359 6 1 213 168 159 166 176 189
291 282 259 229 222 220 215 212 214 225 231 241 248 261 269 277 285 302 314 328 339 347 358 14 25 19 64 161 158 159 166 175 187
290 266 231 216 216 213 207 209 218 227 232 238 246 262 272 277 290 300 309 321 332 342 352 8 42 102 123 137 159 170 180 190 194
Height
10819 10817 10815 10814 10812 10810 10808 10806 10805 10803 10801 10800 10798 10796 10795 10793 10791 10790 10790 10789 10788 10789 10789 10789 10790 10792 10793 10795 10797 10799 10802 10804 10807
10811 10809 10807 10804 10802 10801 10799 10796 10794 10792 10791 10789 10787 10784 10783 10781 10779 10777 10777 10777 10777 10776 10776 10777 10778 10779 10782 10784 10786 10788 10790 10793 10797
10801 10799 10797 10794 10792 10790 10788 10786 10783 10781 10779 10777 10774 10771 10769 10767 10765 10764 10763 10764 10764 10764 10764 10765 10766 10767 10769 10771 10774 10776 10779 10782 10785
10791 10789 10786 10784 10781 10778 10776 10773 10770 10768 10766 10763 10761 10758 10755 10753 10751 10749 10748 10748 10749 10751 10751 10752 10754 10755 10756 10758 10761 10764 10767 10770 10774
10779 10776 10773 10771 10768 10766 10764 10760 10758 10755 10752 10749 10747 10744 10741 10738 10736 10735 10734 10732 10731 10733 10734 10736 10738 10739 10741 10744 10747 10750 10754 10758 10761
10765 10762 10760 10757 10755 10753 10750 10746 10744 10741 10738 10736 10732 10729 10727 10724 10721 10719 10717 10718 10716 10715 10717 10719 10720 10723 10725 10727 10730 10734 10738 10743 10748
10751 10748 10746 10743 10741 10739 10736 10733 10731 10728 10724 10722 10718 10716 10713 10709 10706 10704 10703 10703 10703 10703 10703 10702 10703 10705 10707 10709 10713 10718 10721 10726 10732
10735 10733 10730 10728 10725 10724 10721 10719 10718 10715 10712 10710 10706 10703 10699 10696 10694 10692 10691 10691 10690 10689 10687 10686 10686 10686 10687 10688 10693 10697 10703 10709 10715
10717 10715 10714 10712 10710 10709 10707 10706 10705 10702 10700 10697 10695 10692 10688 10686 10684 10683 10682 10681 10681 10679 10677 10676 10673 10671 10669 10668 10673 10678 10684 10691 10698
10699 10697 10695 10694 10694 10693 10693 10692 10690 10690 10688 10686 10684 10682 10680 10679 10678 10677 10675 10675 10674 10671 10668 10664 10660 10654 10648 10647 10652 10658 10666 10674 10682
10680 10678 10677 10678 10677 10678 10678 10679 10677 10678 10677 10674 10674 10674 10673 10674 10673 10672 10670 10668 10664 10660 10654 10647 10637 10628 10624 10625 10631 10640 10651 10659 10666
10663 10661 10661 10661 10662 10664 10665 10666 10665 10666 10666 10664 10665 10666 10667 10667 10667 10666 10664 10661 10655 10647 10638 10625 10613 10604 10599 10601 10608 10619 10638 10651 10652
10647 10646 10647 10647 10648 10650 10653 10653 10653 10655 10656 10656 10658 10659 10660 10661 10661 10659 10656 10651 10644 10636 10621 10605 10590 10578 10574 10575 10580 10590 10609 10624 10635
10631 10631 10631 10632 10634 10636 10639 10640 10641 10643 10646 10649 10651 10653 10654 10655 10654 10652 10648 10642 10633 10621 10604 10587 10569 10558 10553 10553 10556 10566 10582 10605 10617
10616 10616 10617 10618 10620 10623 10626 10627 10630 10634 10638 10642 10646 10647 10648 10649 10648 10644 10640 10633 10623 10607 10590 10572 10554 10545 10539 10537 10541 10552 10568 10585 10608
10602 10602 10603 10604 10607 10610 10614 10617 10620 10625 10631 10636 10639 10641 10642 10642 10641 10637 10633 10626 10613 10598 10579 10561 10545 10536 10531 10531 10533 10545 10565 10589 10611
10590 10589 10590 10591 10595 10599 10604 10608 10613 10619 10624 10629 10633 10636 10636 10635 10634 10631 10627 10619 10606 10593 10575 10555 10543 10534 10529 10530 10534 10547 10564 10589 10599
10577 10576 10575 10577 10582 10589 10595 10601 10607 10613 10617 10622 10626 10629 10631 10631 10629 10626 10621 10613 10603 10592 10576 10557 10545 10536 10531 10535 10540 10551 10569 10583 10589
10567 10566 10566 10569 10576 10582 10588 10595 10601 10607 10612 10616 10619 10621 10621 10622 10622 10619 10615 10609 10601 10592 10582 10567 10552 10543 10538 10543 10553 10559 10569 10576 10588
10562 10562 10563 10567 10573 10578 10584 10591 10597 10602 10607 10610 10612 10613 10614 10613 10613 10612 10611 10605 10600 10594 10587 10579 10568 10568 10564 10571 10564 10568 10573 10581 10588